THEMIS E

Last updated on Oct. 25, 2020, 5:56 a.m. UTC

1 30798U 07004E   20299.41944444 -.00000189  00000-0  00000-0 0  9993
2 30798  12.9953  29.9289 8365236  65.2054 332.1583  0.87841327 47794
UTC
Height (km)
Latitude
Longitude
Inclination
Orbital Period
UTC large
Height (km)
Speed (km/s)
/
Latitude / Longitude
Inclination (degrees)
Orbital Period (minutes)
Azimuth
Elevation
Range (km)
Doppler Factor
iOS Compass Heading
iOS Angle

Next 30 passes for location: Hong Kong

Rise time Rise Azimuth (degrees) Set time Set Azimuth (degrees) Duration Max altitude (degrees)

No matching passes for this satellites